History for KNYNEWYO154

Midtown, New York, NY — Current Conditions
Daily Summary for June 28, 2017
  Current: High: Low: Average:
Temperature: 77.2°F 78.4°F 77.2°F 77.8°F
Dew Point: 52.1°F 53.2°F 51.7°F 52.5°F
Humidity: 41% 41% 40% 41%
Wind Speed: - 0.0mph - 0.0mph
Wind Gust: - 0.0mph - -
Wind: North - - North
Pressure: 30.10in 30.10in 30.02in -
Precipitation: 0.00in      
Statistics for the rest of the month
    High: Low: Average:
Temperature:   79.0°F 71.2°F 74.9°F
Dew Point:   68.7°F 45.8°F 55.0°F
Humidity:   74.0% 36.0% 50.2%
Wind Speed:   0.0mph from the North - 0.0mph
Wind Gust:   0.0mph from the North - -
Wind:   - - North
Pressure:   30.10in 29.57in -
Precipitation:   0.00in    
KNYNEWYO154 Weather Graph
Tabular Data for June 28, 2017
Time Temp. Dew Point Pressure Wind Gust Humidity Rainfall
00:01 78.4°F 52.5°F 30.02in - 40% -
00:11 78.4°F 53.2°F 30.02in - 41% -
00:21 78.4°F 53.2°F 30.03in - 41% -
00:31 78.4°F 53.2°F 30.03in - 41% -
00:41 78.4°F 52.5°F 30.02in - 40% -
01:01 78.3°F 52.4°F 30.03in - 40% -
01:11 78.3°F 53.0°F 30.03in - 41% -
01:21 78.3°F 53.0°F 30.03in - 41% -
01:31 78.3°F 53.0°F 30.03in - 41% -
01:41 78.3°F 53.0°F 30.03in - 41% -
02:01 78.1°F 52.9°F 30.03in - 41% -
02:11 78.1°F 52.9°F 30.03in - 41% -
02:21 78.1°F 52.9°F 30.04in - 41% -
02:31 77.9°F 52.7°F 30.05in - 41% -
02:41 77.9°F 52.7°F 30.04in - 41% -
03:01 77.9°F 52.0°F 30.05in - 40% -
03:11 77.7°F 51.9°F 30.05in - 40% -
03:21 77.7°F 51.9°F 30.06in - 40% -
03:31 77.7°F 51.9°F 30.05in - 40% -
03:41 77.7°F 51.9°F 30.06in - 40% -
04:01 77.5°F 51.7°F 30.06in - 40% -
04:11 77.5°F 51.7°F 30.06in - 40% -
04:22 77.5°F 52.4°F 30.07in - 41% -
04:32 77.5°F 52.4°F 30.07in - 41% -
04:42 77.4°F 52.2°F 30.07in - 41% -
05:12 77.4°F 52.2°F 30.08in - 41% -
05:22 77.4°F 52.2°F 30.08in - 41% -
05:42 77.2°F 52.1°F 30.08in - 41% -
06:12 77.2°F 52.1°F 30.10in - 41% -
06:22 77.2°F 52.1°F 30.10in - 41% -
Comma Delimited File
Powered by Weather Underground, Inc.